Location: Burg
(43.1901°N, 0.3251°E)
Time: 01:55:51
(UTC+00:00)

Daily predictions for brighter satellites

Satellite Brightness Start Highest point End
(mag) Time Altitude Azimuth Time Altitude Azimuth Time Altitude Azimuth
Cosmos 2237 Rocket 4.1 03:43:06 26° ENE 03:43:06 26° ENE 03:45:57 10° NE
BREEZE-M DEB (TANK) 4.4 03:55:50 67° N 03:55:51 67° N 04:00:44 10° E
Lacrosse 4 Rocket 4.2 04:04:26 17° ENE 04:04:26 17° ENE 04:05:51 10° NE
Gbstr 26 Del rocket 4.3 04:13:50 79° ESE 04:13:50 79° ESE 04:21:40 10° ENE
Cosmos 1464 Rocket 4.4 04:13:46 58° ESE 04:14:03 59° E 04:20:06 10° NNE
FALCON 9 R/B 4.0 04:24:54 16° S 04:24:54 16° S 04:26:07 10° SSE
Atlas Centaur 2 3.9 04:26:50 29° S 04:26:56 29° S 04:33:32 10° ESE
ATLAS CENTAUR R/B 3.8 04:31:45 16° NE 04:31:45 16° NE 04:32:36 10° NE
METEOR-M 4.3 04:29:25 10° NNE 04:34:34 69° E 04:34:34 69° E
Lacrosse 5 rocket 3.9 04:40:11 13° SE 04:40:11 13° SE 04:40:39 10° SE
Cosmos 372 Rocket 4.2 04:40:33 67° NE 04:40:43 67° ENE 04:45:54 10° SSE
USA 215 4.0 04:37:28 10° NE 04:43:14 35° NNW 04:43:15 35° NNW
USA 307 4.1 04:44:43 39° ENE 04:44:43 39° ENE 04:47:28 10° NE
NOSS 0 Rocket 4.3 04:45:41 50° NNW 04:45:41 50° NNW 04:50:32 10° NNE
ADEOS 3.7 04:39:57 10° NNE 04:45:11 71° ESE 04:47:41 31° S
USA 305 3.8 04:50:49 44° NE 04:50:49 44° NE 04:53:47 10° NE
Nadezhda 4 Rocket 4.0 04:43:28 10° N 04:49:37 75° E 04:55:43 10° SSE
USA 308 3.6 04:53:18 50° ENE 04:53:18 50° ENE 04:56:32 10° NE
Cosmos 1400 Rocket 3.5 04:53:19 53° E 04:53:19 53° E 04:57:07 10° NNE
SL-4 R/B 3.3 04:55:30 33° NE 04:55:30 33° NE 04:57:50 10° NE
Cosmos 2034 Rocket 4.0 04:49:12 10° S 04:55:34 87° E 05:01:58 10° N
Cosmos 1943 Rocket 3.8 04:51:10 10° N 04:56:07 31° NE 05:01:07 10° ESE
Meteor 1-16 Rocket 4.4 04:50:39 10° S 04:56:32 78° E 05:02:29 10° NNE
Cosmos 1570 Rocket 4.1 04:57:36 62° NNW 04:57:36 62° NNW 05:02:08 10° NNE
Cosmos 540 Rocket 4.5 05:01:40 33° N 05:01:40 33° N 05:04:41 10° N
CZ-4B R/B 3.9 04:56:35 10° SSE 04:57:25 17° SSE 04:57:25 17° SSE
USA 306 3.3 05:02:36 57° NE 05:02:36 57° NE 05:06:03 10° NE
NOSS 3-2 (A) 3.4 05:00:28 30° SSW 05:03:21 73° ESE 05:09:42 10° NE
SJ-12 4.1 04:59:13 10° NNE 05:03:21 73° E 05:04:11 54° SSE
Cosmos 1814 Rocket 3.8 05:03:50 68° NW 05:03:50 68° NW 05:08:41 10° NNE
Cosmos 2369 Rocket 4.2 05:01:55 10° N 05:06:20 23° NE 05:10:44 10° ESE
COSMO-SKYMED 1 2.5 05:06:30 10° SSE 05:10:50 82° ENE 05:12:33 37° N
CZ-4B R/B 3.3 05:08:48 10° NNE 05:12:25 55° ESE 05:16:09 10° S
CZ-4B R/B 4.3 05:09:52 10° N 05:13:34 55° NNW 05:13:34 55° NNW
USA 267 4.0 05:10:29 10° S 05:16:11 32° SW 05:16:23 32° WSW
SL-16 R/B 2.3 05:10:58 10° SSW 05:16:36 76° ESE 05:22:17 10° NNE
Cosmos 2278 Rocket 3.3 05:18:36 26° SW 05:18:36 26° SW 05:21:40 10° SSW
NOSS 3-2 (C) 4.0 05:11:41 10° SSW 05:17:04 54° ESE 05:23:11 10° NE
CZ-2C R/B 2.8 05:19:17 24° SSW 05:19:34 25° S 05:23:00 10° SE
ERBS 4.4 05:18:11 15° S 05:20:07 25° SE 05:22:51 10° ENE
Cosmos 972 Rocket 4.4 05:14:45 10° SSW 05:21:07 81° ESE 05:26:48 10° NNE
Cosmos 2219 Rocket 4.2 05:23:36 12° NNW 05:23:36 12° NNW 05:24:36 10° N
ERS-2 2.2 05:19:57 10° SSE 05:23:35 74° ENE 05:25:10 32° N
CENTAUR R/B 2.8 05:18:33 10° SSW 05:24:14 66° ESE 05:31:01 10° NE
Cosmos 2237 Rocket 2.7 05:24:59 36° NW 05:24:59 36° NW 05:30:06 10° N
Cosmos 2208 Rocket 4.2 05:23:25 41° WSW 05:24:52 52° WNW 05:30:10 10° N
ATLAS 5 CENTAUR R/B 2.5 05:25:47 36° SSW 05:25:47 36° SSW 05:30:07 10° SSE
Cosmos 2026 Rocket 4.4 05:19:00 10° N 05:25:21 68° E 05:31:42 10° SSE
H-2A R/B 2.9 05:25:41 10° NNE 05:29:25 68° ESE 05:33:09 10° S
FALCON 9 DEB 3.3 05:30:00 53° S 05:30:21 58° SE 05:33:27 10° ENE
Meteor PRIRODA 3.4 05:30:27 10° N 05:34:05 83° WNW 05:37:43 10° SSW
Cosmos 1626 Rocket 3.9 05:37:41 39° WNW 05:38:11 41° W 05:42:22 10° SSW
Cosmos 1703 3.7 05:39:02 40° WSW 05:39:02 40° WSW 05:42:17 10° SSW
FALCON 9 DEB 2.8 05:38:25 63° SW 05:38:50 82° SE 05:41:57 10° NE
Lacrosse 4 Rocket 2.0 05:40:48 36° WNW 05:40:53 36° NW 05:44:57 10° NNE
Cosmos 1300 2.7 05:40:46 10° S 05:44:33 82° E 05:48:23 10° N
Meteor 1-11 4.1 05:40:32 10° NNW 05:46:07 82° W 05:51:43 10° S
SAR-Lupe-4 3.4 05:43:36 10° S 05:47:10 75° WSW 05:50:19 13° NNW
Cosmos 1315 Rocket 2.8 05:45:12 10° S 05:49:06 79° E 05:53:01 10° NNE
[s.n.47389] 4.0 05:48:24 18° SSW 05:49:54 33° SE 05:52:17 10° ENE
[s.n.47399] 4.0 05:48:25 17° SSW 05:49:56 33° SE 05:52:20 10° ENE
[s.n.47393] 4.0 05:48:28 18° SSW 05:49:58 33° SE 05:52:22 10° ENE
[s.n.47353] 4.0 05:48:32 17° SSW 05:50:03 34° SE 05:52:26 10° ENE
[s.n.47355] 4.0 05:48:35 17° SSW 05:50:06 34° SE 05:52:30 10° ENE
[s.n.47365] 4.0 05:48:37 17° SSW 05:50:09 34° SE 05:52:33 10° ENE
[s.n.47383] 4.0 05:48:43 17° SSW 05:50:14 34° SE 05:52:38 10° ENE
[s.n.47400] 4.0 05:48:40 17° SSW 05:50:15 34° SE 05:52:42 10° ENE
[s.n.47378] 4.0 05:48:48 17° SSW 05:50:19 34° SE 05:52:44 10° ENE
[s.n.47395] 4.0 05:48:51 17° SSW 05:50:22 34° SE 05:52:46 10° ENE
[s.n.47379] 4.0 05:48:57 17° SSW 05:50:28 34° SE 05:52:53 10° ENE
[s.n.47370] 4.0 05:48:57 17° SSW 05:50:29 34° SE 05:52:53 10° ENE
[s.n.47351] 4.0 05:48:57 17° SSW 05:50:32 35° SE 05:52:59 10° ENE
[s.n.47394] 4.0 05:49:02 17° SSW 05:50:35 34° SE 05:53:00 10° ENE
[s.n.47354] 4.0 05:49:07 17° SSW 05:50:39 34° SE 05:53:04 10° ENE
[s.n.47360] 4.0 05:49:08 17° SSW 05:50:41 34° SE 05:53:06 10° ENE
[s.n.47369] 4.0 05:49:13 17° SSW 05:50:47 34° SE 05:53:11 10° ENE
[s.n.47406] 4.0 05:49:15 17° SSW 05:50:49 34° SE 05:53:13 10° ENE
[s.n.47384] 3.9 05:49:18 17° SSW 05:50:51 34° SE 05:53:17 10° ENE
[s.n.47356] 4.0 05:49:21 17° SSW 05:50:55 34° SE 05:53:19 10° ENE
[s.n.47407] 3.9 05:49:24 17° SSW 05:50:58 34° SE 05:53:23 10° ENE
[s.n.47385] 4.0 05:49:22 17° SSW 05:51:00 35° SE 05:53:28 10° ENE
[s.n.47358] 3.9 05:49:32 17° SSW 05:51:05 35° SE 05:53:30 10° ENE
[s.n.47398] 3.9 05:49:33 17° SSW 05:51:07 35° SE 05:53:32 10° ENE
[s.n.47361] 3.9 05:49:37 17° SSW 05:51:11 35° SE 05:53:37 10° ENE
[s.n.47392] 3.9 05:49:39 17° SSW 05:51:13 35° SE 05:53:39 10° ENE
[s.n.47382] 3.9 05:49:43 17° SSW 05:51:17 35° SE 05:53:42 10° ENE
[s.n.47359] 3.9 05:49:43 17° SSW 05:51:19 35° SE 05:53:46 10° ENE
[s.n.47401] 3.9 05:49:50 17° SSW 05:51:25 35° SE 05:53:49 10° ENE
[s.n.47380] 3.9 05:49:47 17° SSW 05:51:26 35° SE 05:53:53 10° ENE
[s.n.47386] 3.9 05:49:57 17° SSW 05:51:31 35° SE 05:53:56 10° ENE
[s.n.47408] 3.9 05:49:55 17° SSW 05:51:33 36° SE 05:54:01 10° ENE
[s.n.47396] 3.9 05:50:02 17° SSW 05:51:38 35° SE 05:54:02 10° ENE
[s.n.47391] 3.9 05:50:04 17° SSW 05:51:39 35° SE 05:54:05 10° ENE
[s.n.47402] 3.9 05:50:08 17° SSW 05:51:42 35° SE 05:54:08 10° ENE
[s.n.47404] 3.9 05:50:11 17° SSW 05:51:47 35° SE 05:54:12 10° ENE
deb Chang Zheng 4 3.7 05:47:47 10° N 05:51:50 45° WNW 05:55:51 10° SW
[s.n.47403] 3.9 05:50:14 17° SSW 05:51:50 35° SE 05:54:15 10° ENE
[s.n.47381] 3.9 05:50:17 17° SSW 05:51:53 35° SE 05:54:18 10° ENE
[s.n.47372] 3.9 05:50:21 17° SSW 05:51:57 35° SE 05:54:22 10° ENE
[s.n.47405] 3.9 05:50:23 17° SSW 05:51:59 35° SE 05:54:25 10° ENE
[s.n.47368] 3.9 05:50:28 17° SSW 05:52:05 36° SE 05:54:30 10° ENE
[s.n.47350] 3.9 05:50:30 17° SSW 05:52:06 36° SE 05:54:32 10° ENE
[s.n.47349] 3.9 05:50:27 17° SSW 05:52:08 36° SE 05:54:37 10° ENE
[s.n.47367] 3.9 05:50:34 17° SSW 05:52:11 36° SE 05:54:38 10° ENE
[s.n.47373] 3.9 05:50:34 17° SSW 05:52:15 36° SE 05:54:43 10° ENE
[s.n.47377] 3.9 05:50:37 17° SSW 05:52:18 36° SE 05:54:46 10° ENE
[s.n.47371] 3.9 05:50:40 17° SSW 05:52:21 36° SE 05:54:49 10° ENE
[s.n.47362] 3.9 05:50:42 17° SSW 05:52:23 36° SE 05:54:52 10° ENE
[s.n.47363] 3.9 05:50:46 17° SSW 05:52:27 36° SE 05:54:56 10° ENE
[s.n.47374] 3.9 05:50:52 17° SSW 05:52:32 36° SE 05:54:58 10° ENE
[s.n.47357] 3.9 05:50:57 17° SSW 05:52:35 36° SE 05:55:01 10° ENE
[s.n.47390] 3.9 05:51:01 17° SSW 05:52:38 36° SE 05:55:05 10° ENE
Cosmos 2195 Rocket 4.4 05:46:29 10° NNW 05:52:39 65° W 05:58:44 10° S
[s.n.47387] 3.9 05:51:03 17° SSW 05:52:41 36° SE 05:55:07 10° ENE
[s.n.47375] 3.9 05:51:04 17° SSW 05:52:42 36° SE 05:55:08 10° ENE
[s.n.47376] 3.9 05:51:02 16° SSW 05:52:44 37° SE 05:55:13 10° ENE
[s.n.47366] 3.8 05:51:13 17° SSW 05:52:51 36° SE 05:55:19 10° ENE
[s.n.47352] 3.8 05:51:15 17° SSW 05:52:54 37° SE 05:55:22 10° ENE
[s.n.47364] 3.8 05:51:18 17° SSW 05:52:58 37° SE 05:55:26 10° ENE
[s.n.47388] 3.8 05:51:21 17° SSW 05:53:01 37° SE 05:55:29 10° ENE
[s.n.47397] 3.8 05:51:28 17° SSW 05:53:06 37° SE 05:55:33 10° ENE
Cosmos 2297 3.7 05:50:12 11° NNW 05:55:37 63° WSW 06:01:16 10° S
MOS 1 Rocket 3.5 05:51:47 10° S 05:56:28 46° W 06:00:55 10° NNW
SKYMED 2 4.4 05:55:13 10° SSW 05:59:01 30° W 06:01:10 20° NW
USA 238 DEB 3.6 05:52:35 10° SW 05:59:05 62° NW 06:05:56 10° NNE
Cosmos 1346 Rocket 2.7 05:55:11 10° NNW 05:59:08 62° W 06:03:04 10° S
USA 238 3.6 05:52:42 10° SW 05:59:11 63° NW 06:06:02 10° NNE
Cosmos 836 Rocket 4.4 05:54:02 10° SSW 05:59:17 77° WNW 06:04:33 10° NNE
Cosmos 1428 Rocket 4.4 05:55:46 10° NNW 06:01:58 67° W 06:08:05 10° S
SAR-Lupe-1 4.3 06:00:07 10° S 06:03:34 46° W 06:07:00 10° NNW
Cosmos 1758 Rocket 3.7 05:59:40 10° NNW 06:04:03 54° W 06:08:22 10° S
Cosmos 1689 Rocket 2.4 06:03:09 10° S 06:05:54 39° W 06:07:24 21° NW
ATLAS CENTAUR R/B 2.5 06:07:56 19° NW 06:08:09 19° NW 06:10:50 10° N
BREEZE M DEB (TANK) 1.5 06:11:50 21° WSW 06:13:14 76° NNW 06:17:26 10° ENE
Atlas Centaur 2 4.4 06:09:55 10° WSW 06:15:38 24° SSW 06:21:52 10° SSE
SL-19 R/B 4.2 06:12:09 10° NNE 06:15:47 70° ESE 06:18:57 10° S
Cosmos 2084 Rocket 4.5 06:13:52 17° WNW 06:16:24 30° WSW 06:20:20 10° S
Cosmos 1726 Rocket 3.4 06:12:34 10° SSW 06:16:52 75° W 06:21:12 10° N
Cosmos 2058 Rocket 3.4 06:14:31 10° S 06:18:53 70° E 06:23:19 10° NNE
MOS 1-B 4.5 06:13:05 10° NNE 06:18:54 83° ESE 06:24:40 10° SSW
Cosmos 1892 3.2 06:15:46 10° N 06:19:36 64° E 06:23:25 10° SSE
YAOGAN 6 3.0 06:16:08 10° N 06:19:39 42° WNW 06:23:08 10° SW
Cosmos 1603 4.2 06:14:17 10° S 06:19:48 65° ESE 06:25:24 10° NNE
Spot 2 3.9 06:16:24 10° NNE 06:20:28 87° WNW 06:24:36 10° SSW
FALCON 9 DEB 3.4 06:19:09 17° W 06:21:10 39° NNW 06:24:06 10° NE
GEOS 3 Rocket 3.7 06:16:16 10° SSE 06:21:37 77° SW 06:27:03 10° NW
USA 307 4.0 06:20:53 15° WNW 06:23:35 28° NNW 06:27:18 10° NE
Cosmos 2279 Rocket 4.0 06:22:40 10° SSW 06:28:52 64° W 06:35:06 10° N
CZ-4B DEB 4.2 06:24:21 10° N 06:29:54 69° WNW 06:35:24 10° SSW
USA 305 4.1 06:26:57 13° WNW 06:29:56 26° NNW 06:33:34 10° NE
FALCON 9 DEB 3.5 06:27:20 13° W 06:29:56 38° NNW 06:32:55 10° NE
In-Cosmos 22 Rocket 4.1 06:24:36 10° NNW 06:30:04 83° W 06:35:24 10° S
PSLV R/B 4.2 06:26:41 10° N 06:30:30 43° WNW 06:34:21 10° SW
Cosmos 2292 Rocket 2.8 06:28:38 10° NNW 06:31:42 68° W 06:35:18 10° S
USA 308 4.1 06:29:28 12° WNW 06:32:40 27° NNW 06:36:20 10° NE
Cosmos 1408 3.0 06:29:44 10° N 06:33:19 65° E 06:36:55 10° SSE
SL-4 R/B 3.2 06:31:05 12° WNW 06:34:02 27° N 06:37:35 10° NE
Cosmos 2098 Rocket 4.0 06:30:49 10° NNW 06:35:43 34° W 06:39:41 10° SSW
Okean O Rocket 1.8 06:31:28 10° NNE 06:35:51 78° ESE 06:40:10 10° S
Cosmos 1825 Rocket 4.3 06:32:31 10° NNW 06:36:33 34° W 06:40:33 10° SSW
SMAP 3.0 06:33:17 10° N 06:37:57 73° WNW 06:42:34 10° SSW
Cosmos 2263 4.4 06:33:33 10° NNW 06:39:16 81° ENE 06:44:58 10° SSE
Cosmos 1943 Rocket 2.6 06:34:40 10° NW 06:39:59 43° WSW 06:45:17 10° S
CZ-2C R/B 2.7 06:35:50 10° S 06:41:02 64° W 06:46:23 10° NNW
H-2A R/B 2.7 06:37:39 10° N 06:42:08 64° WNW 06:46:34 10° SSW
USA 306 4.2 06:38:49 10° WNW 06:42:18 24° NNW 06:45:49 10° NE
Cosmos 1939 Rocket 3.3 06:40:54 10° NNE 06:44:47 64° E 06:48:36 10° S
Envisat 3.7 06:41:59 10° N 06:46:28 32° WNW 06:50:57 10° SW
Cosmos 773 Rocket 4.0 06:42:36 10° SSW 06:47:51 86° WNW 06:53:05 10° NNE
Cosmos 2369 Rocket 2.3 06:45:16 10° NNW 06:50:47 60° WSW 06:56:15 10° S
Meteor 2-10 Rocket 3.8 06:47:21 10° SSW 06:53:09 68° WNW 06:58:54 10° N
